,,,PA_Meas_PMT16A,,PR_Meas_QMR101_102,,RH_Meas_QMH101,,SR_Meas_QMS101,,TA_Meas_QMH101,,GenWind,,GenWind,
date,time,status,PA,status,PR,status,RH,status,SR,status,TA,status,DirAvg,status,SpdAvg,
2009-11-15, 00:00:04,VALID,1001.56,VALID,0,VALID,91.6763,VALID,0,VALID,25.2611,VALID,360,VALID,0.764844,
2009-11-15, 00:01:04,VALID,1001.55,VALID,0,VALID,91.7678,VALID,0,VALID,25.2416,VALID,356,VALID,0.610937,
2009-11-15, 00:02:04,VALID,1001.55,VALID,0,VALID,91.8288,VALID,0,VALID,25.2416,VALID,357,VALID,0.228516,
2009-11-15, 00:03:04,VALID,1001.53,VALID,0,VALID,91.8746,VALID,0,VALID,25.2221,VALID,352,VALID,0.584766,
2009-11-15, 00:04:04,VALID,1001.56,VALID,0,VALID,91.9356,VALID,0,VALID,25.2027,VALID,352,VALID,0.861328,
2009-11-15, 00:05:04,VALID,1001.51,VALID,0,VALID,92.0196,VALID,0,VALID,25.2027,VALID,351,VALID,0.773828,
2009-11-15, 00:06:04,VALID,1001.52,VALID,0,VALID,92.134,VALID,0,VALID,25.1618,VALID,349,VALID,0.937891,
2009-11-15, 00:07:04,VALID,1001.52,VALID,0,VALID,92.1569,VALID,0.100563,VALID,25.2416,VALID,354,VALID,0.919141,
2009-11-15, 00:08:04,VALID,1001.52,VALID,0,VALID,92.0958,VALID,0,VALID,25.2416,VALID,332,VALID,0.922656,
2009-11-15, 00:09:04,VALID,1001.55,VALID,0,VALID,92.0272,VALID,0,VALID,25.2397,VALID,333,VALID,1.06406,
2009-11-15, 00:10:04,VALID,1001.52,VALID,0,VALID,91.8975,VALID,0,VALID,25.2806,VALID,357,VALID,1.26094,
2009-11-15, 00:11:04,VALID,1001.49,VALID,0,VALID,91.7983,VALID,0,VALID,25.3,VALID,348,VALID,0.905078,
2009-11-15, 00:12:04,VALID,1001.48,VALID,0,VALID,91.7144,VALID,0,VALID,25.3195,VALID,347,VALID,0.897656,
2009-11-15, 00:13:04,VALID,1001.45,VALID,0,VALID,91.6152,VALID,0,VALID,25.3176,VALID,341,VALID,0.596094,
2009-11-15, 00:14:04,VALID,1001.41,VALID,0,VALID,91.5542,VALID,0,VALID,25.3584,VALID,351,VALID,1.08555,
2009-11-15, 00:15:04,VALID,1001.39,VALID,0,VALID,91.4626,VALID,0,VALID,25.3584,VALID,347,VALID,0.924219,
2009-11-15, 00:16:04,VALID,1001.36,VALID,0,VALID,91.4245,VALID,0,VALID,25.3584,VALID,353,VALID,0.6,
2009-11-15, 00:17:04,VALID,1001.31,VALID,0,VALID,91.4016,VALID,0,VALID,25.3565,VALID,1,VALID,0.676562,
2009-11-15, 00:18:04,VALID,1001.36,VALID,0,VALID,91.3787,VALID,0,VALID,25.3779,VALID,312,VALID,0.553125,
2009-11-15, 00:19:04,VALID,1001.33,VALID,0,VALID,91.4016,VALID,0,VALID,25.3565,VALID,348,VALID,0.594922,
2009-11-15, 00:20:04,VALID,1001.37,VALID,0,VALID,91.4398,VALID,0,VALID,25.3584,VALID,346,VALID,0.491016,
2009-11-15, 00:21:04,VALID,1001.38,VALID,0,VALID,91.4932,VALID,0,VALID,25.3584,VALID,358,VALID,0.277344,
2009-11-15, 00:22:04,VALID,1001.4,VALID,0,VALID,91.5389,VALID,0,VALID,25.3565,VALID,338,VALID,0.398047,
2009-11-15, 00:23:04,VALID,1001.4,VALID,0,VALID,91.5084,VALID,0,VALID,25.3779,VALID,355,VALID,0.386719,
2009-11-15, 00:24:04,VALID,1001.39,VALID,0,VALID,91.4779,VALID,0.100563,VALID,25.3565,VALID,344,VALID,0.694531,
2009-11-15, 00:25:04,VALID,1001.42,VALID,0,VALID,91.4626,VALID,0,VALID,25.3779,VALID,344,VALID,0.389453,
2009-11-15, 00:26:04,VALID,1001.37,VALID,0,VALID,91.4245,VALID,0,VALID,25.3974,VALID,307,VALID,0.294141,
2009-11-15, 00:27:04,VALID,1001.36,VALID,0,VALID,91.3253,VALID,0,VALID,25.4149,VALID,352,VALID,0.434766,
2009-11-15, 00:28:04,VALID,1001.32,VALID,0,VALID,91.2338,VALID,0,VALID,25.4169,VALID,352,VALID,0.545703,
2009-11-15, 00:29:04,VALID,1001.36,VALID,0,VALID,91.2567,VALID,0,VALID,25.3974,VALID,352,VALID,0.322266,
2009-11-15, 00:30:04,VALID,1001.31,VALID,0,VALID,91.2719,VALID,0,VALID,25.3779,VALID,352,VALID,0.467578,
2009-11-15, 00:31:04,VALID,1001.36,VALID,0,VALID,91.2719,VALID,0,VALID,25.3584,VALID,352,VALID,0.285547,
2009-11-15, 00:32:04,VALID,1001.33,VALID,0,VALID,91.3787,VALID,0,VALID,25.3195,VALID,352,VALID,0.513281,
2009-11-15, 00:33:04,VALID,1001.37,VALID,0,VALID,91.455,VALID,0,VALID,25.2806,VALID,352,VALID,0.342969,
2009-11-15, 00:34:04,VALID,1001.41,VALID,0,VALID,91.5695,VALID,0,VALID,25.2416,VALID,352,VALID,0.0324219,
2009-11-15, 00:35:04,VALID,1001.44,VALID,0,VALID,91.722,VALID,0,VALID,25.1813,VALID,352,VALID,0.149609,
2009-11-15, 00:36:04,VALID,1001.47,VALID,0,VALID,91.8288,VALID,0,VALID,25.1637,VALID,352,VALID,0.0195313,
2009-11-15, 00:37:04,VALID,1001.45,VALID,0,VALID,91.9814,VALID,0,VALID,25.1229,VALID,352,VALID,0.0640625,
2009-11-15, 00:38:04,VALID,1001.48,VALID,0,VALID,92.0348,VALID,0,VALID,25.1248,VALID,352,VALID,0,
2009-11-15, 00:39:04,VALID,1001.47,VALID,0,VALID,92.1187,VALID,0,VALID,25.1034,VALID,352,VALID,0.0859375,
2009-11-15, 00:40:04,VALID,1001.49,VALID,0,VALID,92.2255,VALID,0.100563,VALID,25.0839,VALID,352,VALID,0,
2009-11-15, 00:41:04,VALID,1001.48,VALID,0,VALID,92.3095,VALID,0,VALID,25.0839,VALID,352,VALID,0,
2009-11-15, 00:42:04,VALID,1001.44,VALID,0,VALID,92.3857,VALID,0,VALID,25.0839,VALID,352,VALID,0,
2009-11-15, 00:43:04,VALID,1001.38,VALID,0,VALID,92.4773,VALID,0,VALID,25.1053,VALID,352,VALID,0,
2009-11-15, 00:44:04,VALID,1001.34,VALID,0,VALID,92.5078,VALID,0,VALID,25.0663,VALID,352,VALID,0,
2009-11-15, 00:45:04,VALID,1001.3,VALID,0,VALID,92.5231,VALID,0,VALID,25.0663,VALID,352,VALID,0,
2009-11-15, 00:46:04,VALID,1001.32,VALID,0,VALID,92.546,VALID,0,VALID,25.0469,VALID,352,VALID,0,
2009-11-15, 00:47:04,VALID,1001.32,VALID,0,VALID,92.5688,VALID,0,VALID,25.0469,VALID,352,VALID,0,
2009-11-15, 00:48:04,VALID,1001.32,VALID,0,VALID,92.5841,VALID,0,VALID,25.0079,VALID,353,VALID,0.555859,
2009-11-15, 00:49:04,VALID,1001.31,VALID,0,VALID,92.6451,VALID,0,VALID,24.9885,VALID,353,VALID,0.396484,
2009-11-15, 00:50:04,VALID,1001.31,VALID,0,VALID,92.7519,VALID,0,VALID,24.9671,VALID,353,VALID,0.530859,
2009-11-15, 00:51:04,VALID,1001.3,VALID,0,VALID,92.8969,VALID,0,VALID,24.9885,VALID,353,VALID,0.350391,
2009-11-15, 00:52:04,VALID,1001.3,VALID,0,VALID,92.9961,VALID,0,VALID,24.9904,VALID,353,VALID,0.383984,
2009-11-15, 00:53:04,VALID,1001.29,VALID,0,VALID,93.0189,VALID,0,VALID,24.93,VALID,353,VALID,0.376953,
2009-11-15, 00:54:04,VALID,1001.26,VALID,0,VALID,93.0723,VALID,0,VALID,24.8911,VALID,353,VALID,0.271094,
2009-11-15, 00:55:04,VALID,1001.24,VALID,0,VALID,93.1715,VALID,0,VALID,24.8911,VALID,353,VALID,0.0667969,
2009-11-15, 00:56:04,VALID,1001.2,VALID,0,VALID,93.2173,VALID,0,VALID,24.8716,VALID,353,VALID,0.119922,
2009-11-15, 00:57:04,VALID,1001.16,VALID,0,VALID,93.2859,VALID,0,VALID,24.893,VALID,353,VALID,0.166797,
2009-11-15, 00:58:04,VALID,1001.17,VALID,0,VALID,93.3622,VALID,0,VALID,24.8503,VALID,353,VALID,0.197656,
2009-11-15, 00:59:04,VALID,1001.13,VALID,0,VALID,93.4233,VALID,0,VALID,24.8503,VALID,353,VALID,0.448828,
2009-11-15, 01:00:04,VALID,1001.15,VALID,0,VALID,93.4767,VALID,0,VALID,24.8522,VALID,353,VALID,0.390234,
2009-11-15, 01:01:04,VALID,1001.12,VALID,0,VALID,93.553,VALID,0,VALID,24.8308,VALID,353,VALID,0.479297,
2009-11-15, 01:02:04,VALID,1001.11,VALID,0,VALID,93.6064,VALID,0,VALID,24.8308,VALID,353,VALID,0.389844,
2009-11-15, 01:03:04,VALID,1001.08,VALID,0,VALID,93.675,VALID,0,VALID,24.79,VALID,353,VALID,0.407422,
2009-11-15, 01:04:04,VALID,1001.05,VALID,0,VALID,93.675,VALID,0,VALID,24.7919,VALID,353,VALID,0.343359,
2009-11-15, 01:05:04,VALID,1001.03,VALID,0,VALID,93.7208,VALID,0,VALID,24.7937,VALID,353,VALID,0.296484,
2009-11-15, 01:06:04,VALID,1001.02,VALID,0,VALID,93.7589,VALID,0,VALID,24.7724,VALID,353,VALID,0.356641,
2009-11-15, 01:07:04,VALID,1000.99,VALID,0,VALID,93.8047,VALID,0.100563,VALID,24.751,VALID,353,VALID,0.395703,
2009-11-15, 01:08:04,VALID,1000.95,VALID,0,VALID,93.8123,VALID,0.100563,VALID,24.7724,VALID,353,VALID,0.458203,
2009-11-15, 01:09:04,VALID,1000.95,VALID,0,VALID,93.8352,VALID,0,VALID,24.7705,VALID,353,VALID,0.414453,
2009-11-15, 01:10:04,VALID,1000.94,VALID,0,VALID,93.8276,VALID,0,VALID,24.8132,VALID,353,VALID,0.252734,
2009-11-15, 01:11:04,VALID,1000.92,VALID,0,VALID,93.8047,VALID,0,VALID,24.8327,VALID,353,VALID,0.282813,
2009-11-15, 01:12:04,VALID,1000.86,VALID,0,VALID,93.7971,VALID,0,VALID,24.7919,VALID,353,VALID,0.264844,
2009-11-15, 01:13:04,VALID,1000.86,VALID,0,VALID,93.7513,VALID,0,VALID,24.8327,VALID,353,VALID,0.189063,
2009-11-15, 01:14:04,VALID,1000.86,VALID,0,VALID,93.7513,VALID,0,VALID,24.8113,VALID,353,VALID,0.149219,
2009-11-15, 01:15:04,VALID,1000.82,VALID,0,VALID,93.7513,VALID,0,VALID,24.8522,VALID,353,VALID,0,
2009-11-15, 01:16:04,VALID,1000.76,VALID,0,VALID,93.7284,VALID,0,VALID,24.8522,VALID,353,VALID,0,
2009-11-15, 01:17:04,VALID,1000.73,VALID,0,VALID,93.6979,VALID,0,VALID,24.8522,VALID,353,VALID,0.224219,
2009-11-15, 01:18:04,VALID,1000.71,VALID,0,VALID,93.6979,VALID,0,VALID,24.8716,VALID,349,VALID,0.246484,
2009-11-15, 01:19:04,VALID,1000.71,VALID,0,VALID,93.6674,VALID,0,VALID,24.8911,VALID,349,VALID,0.075,
2009-11-15, 01:20:04,VALID,1000.67,VALID,0,VALID,93.6445,VALID,0,VALID,24.9125,VALID,349,VALID,0.237109,
2009-11-15, 01:21:04,VALID,1000.66,VALID,0,VALID,93.614,VALID,0,VALID,24.9106,VALID,349,VALID,0.278906,
2009-11-15, 01:22:04,VALID,1000.66,VALID,0,VALID,93.5835,VALID,0,VALID,24.9106,VALID,349,VALID,0.223438,
2009-11-15, 01:23:04,VALID,1000.66,VALID,0,VALID,93.553,VALID,0,VALID,24.9106,VALID,349,VALID,0.276563,
2009-11-15, 01:24:04,VALID,1000.7,VALID,0,VALID,93.4996,VALID,0,VALID,24.8911,VALID,349,VALID,0.266016,
2009-11-15, 01:25:04,VALID,1000.69,VALID,0,VALID,93.5072,VALID,0,VALID,24.8716,VALID,349,VALID,0.341016,
2009-11-15, 01:26:04,VALID,1000.71,VALID,0,VALID,93.4996,VALID,0,VALID,24.8327,VALID,349,VALID,0.358203,
2009-11-15, 01:27:04,VALID,1000.71,VALID,0,VALID,93.5377,VALID,0,VALID,24.854,VALID,349,VALID,0.324609,
2009-11-15, 01:28:04,VALID,1000.7,VALID,0,VALID,93.5835,VALID,0,VALID,24.8132,VALID,349,VALID,0.255078,
2009-11-15, 01:29:04,VALID,1000.7,VALID,0,VALID,93.6216,VALID,0,VALID,24.7937,VALID,349,VALID,0.189063,
2009-11-15, 01:30:04,VALID,1000.71,VALID,0,VALID,93.6598,VALID,0,VALID,24.7743,VALID,349,VALID,0.258203,
2009-11-15, 01:31:04,VALID,1000.7,VALID,0,VALID,93.7055,VALID,0,VALID,24.7548,VALID,349,VALID,0.158203,
2009-11-15, 01:32:04,VALID,1000.68,VALID,0,VALID,93.7284,VALID,0,VALID,24.7548,VALID,349,VALID,0,
2009-11-15, 01:33:04,VALID,1000.69,VALID,0,VALID,93.7589,VALID,0,VALID,24.7353,VALID,349,VALID,0,
2009-11-15, 01:34:04,VALID,1000.68,VALID,0,VALID,93.7971,VALID,0,VALID,24.7335,VALID,349,VALID,0,
2009-11-15, 01:35:04,VALID,1000.65,VALID,0,VALID,93.8352,VALID,0,VALID,24.7353,VALID,349,VALID,0,
2009-11-15, 01:36:04,VALID,1000.67,VALID,0,VALID,93.8734,VALID,0,VALID,24.7353,VALID,349,VALID,0,
2009-11-15, 01:37:04,VALID,1000.65,VALID,0,VALID,93.9115,VALID,0,VALID,24.7159,VALID,349,VALID,0,
2009-11-15, 01:38:04,VALID,1000.65,VALID,0,VALID,93.942,VALID,0,VALID,24.7159,VALID,349,VALID,0.3125,
2009-11-15, 01:39:04,VALID,1000.64,VALID,0,VALID,93.9802,VALID,0,VALID,24.7353,VALID,349,VALID,0.0980469,
2009-11-15, 01:40:04,VALID,1000.62,VALID,0,VALID,94.0031,VALID,0,VALID,24.7353,VALID,349,VALID,0.339844,
2009-11-15, 01:41:04,VALID,1000.58,VALID,0,VALID,93.9878,VALID,0,VALID,24.714,VALID,349,VALID,0.310156,
2009-11-15, 01:42:04,VALID,1000.56,VALID,0,VALID,93.9878,VALID,0,VALID,24.7353,VALID,349,VALID,0.458203,
2009-11-15, 01:43:04,VALID,1000.52,VALID,0,VALID,93.9878,VALID,0,VALID,24.6945,VALID,349,VALID,0.338281,
2009-11-15, 01:44:04,VALID,1000.52,VALID,0,VALID,93.9802,VALID,0,VALID,24.6945,VALID,349,VALID,0.553516,
2009-11-15, 01:45:04,VALID,1000.5,VALID,0,VALID,93.9725,VALID,0,VALID,24.6964,VALID,350,VALID,0.380859,
2009-11-15, 01:46:04,VALID,1000.49,VALID,0,VALID,93.9954,VALID,0,VALID,24.6556,VALID,350,VALID,0.230078,
2009-11-15, 01:47:04,VALID,1000.47,VALID,0,VALID,93.9954,VALID,0,VALID,24.6556,VALID,350,VALID,0.133984,
2009-11-15, 01:48:04,VALID,1000.49,VALID,0,VALID,94.0412,VALID,0,VALID,24.675,VALID,348,VALID,0.129688,
2009-11-15, 01:49:04,VALID,1000.49,VALID,0,VALID,94.0946,VALID,0,VALID,24.7159,VALID,348,VALID,0.0585938,
2009-11-15, 01:50:04,VALID,1000.52,VALID,0,VALID,94.0946,VALID,0,VALID,24.7353,VALID,355,VALID,0.595312,
2009-11-15, 01:51:04,VALID,1000.53,VALID,0,VALID,94.1175,VALID,0,VALID,24.7529,VALID,347,VALID,0.560547,
2009-11-15, 01:52:04,VALID,1000.56,VALID,0,VALID,94.0641,VALID,0,VALID,24.7724,VALID,356,VALID,0.80625,
2009-11-15, 01:53:04,VALID,1000.55,VALID,0,VALID,94.0259,VALID,0,VALID,24.7919,VALID,348,VALID,0.817578,
2009-11-15, 01:54:04,VALID,1000.57,VALID,0,VALID,93.9268,VALID,0,VALID,24.854,VALID,340,VALID,0.739844,
2009-11-15, 01:55:04,VALID,1000.57,VALID,0,VALID,93.82,VALID,0,VALID,24.8113,VALID,350,VALID,0.603125,
2009-11-15, 01:56:04,VALID,1000.58,VALID,0,VALID,93.7132,VALID,0,VALID,24.8522,VALID,7,VALID,0.402734,
2009-11-15, 01:57:04,VALID,1000.58,VALID,0,VALID,93.614,VALID,0,VALID,24.8308,VALID,353,VALID,0.478125,
2009-11-15, 01:58:04,VALID,1000.57,VALID,0,VALID,93.5301,VALID,0,VALID,24.8308,VALID,353,VALID,0.676953,
2009-11-15, 01:59:04,VALID,1000.52,VALID,0,VALID,93.469,VALID,0,VALID,24.8716,VALID,355,VALID,0.259766,
2009-11-15, 02:00:04,VALID,1000.5,VALID,0,VALID,93.3928,VALID,0,VALID,24.8503,VALID,355,VALID,0.0542969,
2009-11-15, 02:01:04,VALID,1000.46,VALID,0,VALID,93.3546,VALID,0,VALID,24.8716,VALID,355,VALID,0.476953,
2009-11-15, 02:02:04,VALID,1000.45,VALID,0,VALID,93.3394,VALID,0,VALID,24.8716,VALID,355,VALID,0.270312,
2009-11-15, 02:03:04,VALID,1000.49,VALID,0,VALID,93.3241,VALID,0,VALID,24.8716,VALID,350,VALID,0.60625,
2009-11-15, 02:04:04,VALID,1000.48,VALID,0,VALID,93.2783,VALID,0,VALID,24.8522,VALID,351,VALID,0.688281,
2009-11-15, 02:05:04,VALID,1000.5,VALID,0,VALID,93.2249,VALID,0,VALID,24.8327,VALID,351,VALID,0.43125,
2009-11-15, 02:06:04,VALID,1000.51,VALID,0,VALID,93.1563,VALID,0,VALID,24.8327,VALID,349,VALID,0.387109,
2009-11-15, 02:07:04,VALID,1000.52,VALID,0,VALID,93.1257,VALID,0,VALID,24.7937,VALID,349,VALID,0.307813,
2009-11-15, 02:08:04,VALID,1000.51,VALID,0,VALID,93.141,VALID,0,VALID,24.7956,VALID,349,VALID,0.00546875,
2009-11-15, 02:09:04,VALID,1000.48,VALID,0,VALID,93.1639,VALID,0,VALID,24.7335,VALID,349,VALID,0,
2009-11-15, 02:10:04,VALID,1000.51,VALID,0,VALID,93.2173,VALID,0,VALID,24.7529,VALID,349,VALID,0,
2009-11-15, 02:11:04,VALID,1000.5,VALID,0,VALID,93.2249,VALID,0,VALID,24.7335,VALID,349,VALID,0.221875,
2009-11-15, 02:12:04,VALID,1000.51,VALID,0,VALID,93.2631,VALID,0,VALID,24.714,VALID,349,VALID,0,
2009-11-15, 02:13:04,VALID,1000.5,VALID,0,VALID,93.3165,VALID,0,VALID,24.714,VALID,303,VALID,0.650781,
2009-11-15, 02:14:04,VALID,1000.5,VALID,0,VALID,93.3622,VALID,0,VALID,24.7353,VALID,273,VALID,0.469922,
2009-11-15, 02:15:04,VALID,1000.5,VALID,0,VALID,93.3699,VALID,0.100563,VALID,24.7335,VALID,279,VALID,0.538672,
2009-11-15, 02:16:04,VALID,1000.54,VALID,0,VALID,93.3394,VALID,0,VALID,24.7353,VALID,285,VALID,0.296484,
2009-11-15, 02:17:04,VALID,1000.56,VALID,0,VALID,93.2936,VALID,0,VALID,24.7353,VALID,285,VALID,0,
2009-11-15, 02:18:04,VALID,1000.54,VALID,0,VALID,93.2707,VALID,0,VALID,24.6945,VALID,301,VALID,0.473437,
2009-11-15, 02:19:04,VALID,1000.54,VALID,0,VALID,93.2402,VALID,0,VALID,24.6964,VALID,302,VALID,0.307422,
2009-11-15, 02:20:04,VALID,1000.54,VALID,0,VALID,93.2402,VALID,0,VALID,24.6769,VALID,1,VALID,0.637109,
2009-11-15, 02:21:04,VALID,1000.53,VALID,0,VALID,93.2325,VALID,0,VALID,24.6166,VALID,2,VALID,0.392578,
2009-11-15, 02:22:04,VALID,1000.5,VALID,0,VALID,93.2859,VALID,0,VALID,24.6166,VALID,2,VALID,0.216016,
2009-11-15, 02:23:04,VALID,1000.54,VALID,0,VALID,93.3394,VALID,0,VALID,24.6185,VALID,2,VALID,0.255078,
2009-11-15, 02:24:04,VALID,1000.51,VALID,0,VALID,93.3775,VALID,0,VALID,24.599,VALID,2,VALID,0.490234,
2009-11-15, 02:25:04,VALID,1000.49,VALID,0,VALID,93.4233,VALID,0,VALID,24.5796,VALID,360,VALID,0.171875,
2009-11-15, 02:26:04,VALID,1000.5,VALID,0,VALID,93.5072,VALID,0,VALID,24.5601,VALID,360,VALID,0.456641,
2009-11-15, 02:27:04,VALID,1000.48,VALID,0,VALID,93.5453,VALID,0,VALID,24.5193,VALID,354,VALID,0.328906,
2009-11-15, 02:28:04,VALID,1000.46,VALID,0,VALID,93.5758,VALID,0,VALID,24.4998,VALID,354,VALID,0.00195313,
2009-11-15, 02:29:04,VALID,1000.4,VALID,0,VALID,93.614,VALID,0,VALID,24.5212,VALID,354,VALID,0.00390625,
2009-11-15, 02:30:04,VALID,1000.4,VALID,0,VALID,93.6521,VALID,0,VALID,24.5017,VALID,354,VALID,0.323047,
2009-11-15, 02:31:04,VALID,1000.4,VALID,0,VALID,93.7208,VALID,0,VALID,24.4822,VALID,354,VALID,0.248828,
2009-11-15, 02:32:04,VALID,1000.38,VALID,0,VALID,93.7513,VALID,0,VALID,24.4414,VALID,354,VALID,0.184375,
2009-11-15, 02:33:04,VALID,1000.38,VALID,0,VALID,93.7818,VALID,0,VALID,24.4238,VALID,354,VALID,0.301953,
2009-11-15, 02:34:04,VALID,1000.34,VALID,0,VALID,93.82,VALID,0,VALID,24.4043,VALID,354,VALID,0.242188,
2009-11-15, 02:35:04,VALID,1000.37,VALID,0,VALID,93.8734,VALID,0,VALID,24.3636,VALID,354,VALID,0.448828,
2009-11-15, 02:36:04,VALID,1000.38,VALID,0,VALID,93.9573,VALID,0,VALID,24.3441,VALID,354,VALID,0.196484,
2009-11-15, 02:37:04,VALID,1000.4,VALID,0,VALID,93.9954,VALID,0,VALID,24.3654,VALID,354,VALID,0.266016,
2009-11-15, 02:38:04,VALID,1000.42,VALID,0,VALID,94.0488,VALID,0,VALID,24.3673,VALID,354,VALID,0,
2009-11-15, 02:39:04,VALID,1000.43,VALID,0,VALID,94.1175,VALID,0,VALID,24.3459,VALID,354,VALID,0,
2009-11-15, 02:40:04,VALID,1000.4,VALID,0,VALID,94.1709,VALID,0,VALID,24.3459,VALID,354,VALID,0,
2009-11-15, 02:41:04,VALID,1000.38,VALID,0,VALID,94.2243,VALID,0,VALID,24.3654,VALID,354,VALID,0,
2009-11-15, 02:42:04,VALID,1000.4,VALID,0,VALID,94.2319,VALID,0,VALID,24.3459,VALID,354,VALID,0,
2009-11-15, 02:43:04,VALID,1000.4,VALID,0,VALID,94.2396,VALID,0,VALID,24.3265,VALID,354,VALID,0,
2009-11-15, 02:44:04,VALID,1000.4,VALID,0,VALID,94.2472,VALID,0,VALID,24.307,VALID,354,VALID,0,
2009-11-15, 02:45:04,VALID,1000.38,VALID,0,VALID,94.2701,VALID,0,VALID,24.2857,VALID,354,VALID,0,
2009-11-15, 02:46:04,VALID,1000.4,VALID,0,VALID,94.2548,VALID,0,VALID,24.2875,VALID,354,VALID,0,
2009-11-15, 02:47:04,VALID,1000.41,VALID,0,VALID,94.2853,VALID,0,VALID,24.2875,VALID,354,VALID,0,
2009-11-15, 02:48:04,VALID,1000.42,VALID,0,VALID,94.3082,VALID,0,VALID,24.2681,VALID,354,VALID,0,
2009-11-15, 02:49:04,VALID,1000.39,VALID,0,VALID,94.3464,VALID,0,VALID,24.2681,VALID,354,VALID,0,
2009-11-15, 02:50:04,VALID,1000.4,VALID,0,VALID,94.3616,VALID,0,VALID,24.2273,VALID,354,VALID,0,
2009-11-15, 02:51:04,VALID,1000.35,VALID,0,VALID,94.3921,VALID,0,VALID,24.2486,VALID,354,VALID,0,
2009-11-15, 02:52:04,VALID,1000.3,VALID,0,VALID,94.4227,VALID,0,VALID,24.2486,VALID,354,VALID,0.0972656,
2009-11-15, 02:53:04,VALID,1000.26,VALID,0,VALID,94.4684,VALID,0,VALID,24.2291,VALID,354,VALID,0.330469,
2009-11-15, 02:54:04,VALID,1000.23,VALID,0,VALID,94.4532,VALID,0,VALID,24.2078,VALID,62,VALID,0.609766,
2009-11-15, 02:55:04,VALID,1000.16,VALID,0,VALID,94.4684,VALID,0,VALID,24.1884,VALID,66,VALID,0.574219,
2009-11-15, 02:56:04,VALID,1000.16,VALID,0,VALID,94.4989,VALID,0,VALID,24.1902,VALID,70,VALID,0.269922,
2009-11-15, 02:57:04,VALID,1000.1,VALID,0,VALID,94.5371,VALID,0,VALID,24.1689,VALID,70,VALID,0.395703,
2009-11-15, 02:58:04,VALID,1000.09,VALID,0,VALID,94.56,VALID,0,VALID,24.1707,VALID,70,VALID,0.357031,
2009-11-15, 02:59:04,VALID,1000.06,VALID,0,VALID,94.5829,VALID,0,VALID,24.1902,VALID,70,VALID,0.406641,
2009-11-15, 03:00:04,VALID,1000.07,VALID,0,VALID,94.5829,VALID,0,VALID,24.1707,VALID,70,VALID,0.400391,
2009-11-15, 03:01:04,VALID,1000.03,VALID,0,VALID,94.621,VALID,0,VALID,24.13,VALID,59,VALID,0.513281,
2009-11-15, 03:02:04,VALID,1000.03,VALID,0,VALID,94.621,VALID,0,VALID,24.1513,VALID,59,VALID,0.471484,
2009-11-15, 03:03:04,VALID,999.986,VALID,0,VALID,94.6363,VALID,0,VALID,24.1105,VALID,59,VALID,0.468359,
2009-11-15, 03:04:04,VALID,999.984,VALID,0,VALID,94.6591,VALID,0,VALID,24.1318,VALID,59,VALID,0.519141,
2009-11-15, 03:05:04,VALID,999.95,VALID,0,VALID,94.6744,VALID,0,VALID,24.1123,VALID,59,VALID,0.369141,
2009-11-15, 03:06:04,VALID,999.894,VALID,0,VALID,94.682,VALID,0,VALID,24.1123,VALID,59,VALID,0.274219,
2009-11-15, 03:07:04,VALID,999.873,VALID,0,VALID,94.6744,VALID,0,VALID,24.1123,VALID,59,VALID,0.145703,
2009-11-15, 03:08:04,VALID,999.851,VALID,0,VALID,94.6897,VALID,0,VALID,24.1318,VALID,59,VALID,0.0394531,
2009-11-15, 03:09:04,VALID,999.85,VALID,0,VALID,94.682,VALID,0,VALID,24.091,VALID,59,VALID,0,
2009-11-15, 03:10:04,VALID,999.854,VALID,0,VALID,94.7125,VALID,0,VALID,24.1123,VALID,59,VALID,0,
2009-11-15, 03:11:04,VALID,999.861,VALID,0,VALID,94.7049,VALID,0,VALID,24.0929,VALID,59,VALID,0,
2009-11-15, 03:12:04,VALID,999.863,VALID,0,VALID,94.7049,VALID,0,VALID,24.0929,VALID,59,VALID,0,
2009-11-15, 03:13:04,VALID,999.876,VALID,0,VALID,94.7049,VALID,0,VALID,24.0929,VALID,59,VALID,0,
2009-11-15, 03:14:04,VALID,999.861,VALID,0,VALID,94.7354,VALID,0,VALID,24.0929,VALID,59,VALID,0,
2009-11-15, 03:15:04,VALID,999.866,VALID,0,VALID,94.7278,VALID,0,VALID,24.0929,VALID,59,VALID,0,
2009-11-15, 03:16:04,VALID,999.885,VALID,0,VALID,94.7431,VALID,0,VALID,24.0734,VALID,59,VALID,0,
2009-11-15, 03:17:04,VALID,999.904,VALID,0,VALID,94.7354,VALID,0,VALID,24.0539,VALID,59,VALID,0,
2009-11-15, 03:18:04,VALID,999.906,VALID,0,VALID,94.7278,VALID,0,VALID,24.0345,VALID,59,VALID,0,
2009-11-15, 03:19:04,VALID,999.906,VALID,0,VALID,94.7583,VALID,0,VALID,24.0345,VALID,59,VALID,0,
2009-11-15, 03:20:04,VALID,999.918,VALID,0,VALID,94.7736,VALID,0,VALID,24.0345,VALID,59,VALID,0,
2009-11-15, 03:21:04,VALID,999.918,VALID,0,VALID,94.7888,VALID,0,VALID,24.0345,VALID,59,VALID,0,
2009-11-15, 03:22:04,VALID,999.919,VALID,0,VALID,94.7736,VALID,0,VALID,24.0132,VALID,59,VALID,0,
2009-11-15, 03:23:04,VALID,999.949,VALID,0,VALID,94.7812,VALID,0,VALID,24.015,VALID,59,VALID,0,
2009-11-15, 03:24:04,VALID,999.915,VALID,0,VALID,94.7812,VALID,0,VALID,23.9955,VALID,59,VALID,0.128516,
2009-11-15, 03:25:04,VALID,999.922,VALID,0,VALID,94.8041,VALID,0,VALID,23.9761,VALID,37,VALID,0.63125,
2009-11-15, 03:26:04,VALID,999.943,VALID,0,VALID,94.8041,VALID,0,VALID,23.9371,VALID,37,VALID,0.592578,
2009-11-15, 03:27:04,VALID,999.973,VALID,0,VALID,94.7888,VALID,0,VALID,23.9177,VALID,37,VALID,0.640625,
2009-11-15, 03:28:04,VALID,999.955,VALID,0,VALID,94.7583,VALID,0,VALID,23.8787,VALID,35,VALID,0.457422,
2009-11-15, 03:29:04,VALID,999.998,VALID,0,VALID,94.7888,VALID,0,VALID,23.8787,VALID,35,VALID,0.518359,
2009-11-15, 03:30:04,VALID,1000.01,VALID,0,VALID,94.8117,VALID,0,VALID,23.8982,VALID,35,VALID,0.279297,
2009-11-15, 03:31:04,VALID,1000.05,VALID,0,VALID,94.8194,VALID,0,VALID,23.8769,VALID,35,VALID,0.123438,
2009-11-15, 03:32:04,VALID,1000.03,VALID,0,VALID,94.8499,VALID,0,VALID,23.8769,VALID,35,VALID,0,
2009-11-15, 03:33:04,VALID,1000.04,VALID,0,VALID,94.8422,VALID,0,VALID,23.9177,VALID,35,VALID,0,
2009-11-15, 03:34:04,VALID,1000.06,VALID,0,VALID,94.9033,VALID,0,VALID,23.9177,VALID,35,VALID,0,
2009-11-15, 03:35:04,VALID,1000.06,VALID,0,VALID,94.9185,VALID,0,VALID,23.9371,VALID,35,VALID,0,
2009-11-15, 03:36:04,VALID,1000.07,VALID,0,VALID,94.9567,VALID,0,VALID,23.9371,VALID,35,VALID,0,
2009-11-15, 03:37:04,VALID,1000.03,VALID,0,VALID,94.9338,VALID,0,VALID,23.9177,VALID,35,VALID,0,
2009-11-15, 03:38:04,VALID,1000.03,VALID,0,VALID,94.949,VALID,0,VALID,23.9371,VALID,35,VALID,0,
2009-11-15, 03:39:04,VALID,1000.02,VALID,0,VALID,94.9643,VALID,0,VALID,23.9177,VALID,35,VALID,0,
2009-11-15, 03:40:04,VALID,1000.04,VALID,0,VALID,94.9796,VALID,0,VALID,23.9177,VALID,35,VALID,0,
2009-11-15, 03:41:04,VALID,1000,VALID,0,VALID,94.9796,VALID,0,VALID,23.8769,VALID,35,VALID,0,
2009-11-15, 03:42:04,VALID,1000.04,VALID,0,VALID,94.9719,VALID,0,VALID,23.8982,VALID,35,VALID,0,
2009-11-15, 03:43:04,VALID,1000.05,VALID,0,VALID,94.9719,VALID,0,VALID,23.8593,VALID,35,VALID,0.389453,
2009-11-15, 03:44:04,VALID,1000.1,VALID,0,VALID,94.9872,VALID,0,VALID,23.8398,VALID,35,VALID,0.538281,
2009-11-15, 03:45:04,VALID,1000.12,VALID,0,VALID,94.9948,VALID,0,VALID,23.7991,VALID,35,VALID,0.496875,
2009-11-15, 03:46:04,VALID,1000.13,VALID,0,VALID,94.9872,VALID,0,VALID,23.8185,VALID,35,VALID,0.366016,
2009-11-15, 03:47:04,VALID,1000.16,VALID,0,VALID,94.9872,VALID,0,VALID,23.7991,VALID,35,VALID,0.511719,
2009-11-15, 03:48:04,VALID,1000.14,VALID,0,VALID,95.0024,VALID,0,VALID,23.7796,VALID,35,VALID,0.323047,